STARLINK-31868, 59783

Orbit data source: Space-Track

STARLINK-31868, 59783 is a payload satellite owned by SpaceX/Seattle (US) in LEO that was launched on Sat, 18 May 2024 UTC via an FALCON 9 launch vehicle from the Air Force Eastern Test Range (AFETR). Payloads include a variety of satellites, spacecraft, and rockets equipped with specific instruments for various scientific and technological missions. These include communications satellites like Starlink; space stations such as the ISS; scientific satellites like the Hubble; Earth observation satellites from companies like Planet Labs, Umbra, and HawkEye 360; GPS; miniature CubeSats for education and research; and military/defense satellites.

Loading next visibility...
STARLINK-31868 details
Identifier
59783, 2024-093B
Orbit
LEO
Last TLE update19 hours ago
Origin
Flag of USSpaceX/Seattle (US)
ManufacturerSpaceX/Seattle
MissionOperational spacecraft
Bus & MotorSTARLINK V2M, Unknown motor
Mass730 kg wet, ~700 kg dry
Launch date (UTC)
2024-05-18 (9 months ago)
Launch vehicle
FALCON 9
Launch site
Air Force Eastern Test Range (AFETR)
Object type
Payload
Rocket body
Debris
Shape & HBRUnknown
Radar Cross SectionLarge (>1 m²)

Expand to show TLE details & history

TLE from 19 hours ago
0 STARLINK-31868
1 59783U 24093B   25043.85767179 -.00028850  00000-0 -68264-3 0  9998
2 59783  43.0008 247.9604 0002184 336.1903  23.8852 15.40844079 43109
Epoch: 2025-02-12T20:35Z
Definitive object data (Epoch: 2025-02-12T20:35:02.842Z)
Latitude-0.00004°
Longitude156.05639°
Altitude442.029 km
Speed7.649 km/s
True Right ascension16h 31m 50s
True Declination0° 00' 00"
Sunlit
Object was in daylight at TLE epoch
Visualization TLE readout
Latitude41.34271°
Longitude-98.2971°
Altitude447.321 km
Speed7.649 km/s
Apparent Right ascension02h 49m 36s
Apparent Declination3° 43' 09"
Sunlit
Object is in daylight
Visualization observer readout
Local Sidereal Time18:17:39
Azimuth60.559° ENE
Elevation-25.435°
Doppler factor1
Orbital elements
Apogee altitude447.063 km
Perigee altitude444.083 km
Semi-major axis6,823.71 km
Eccentricity0.0002184
Inclination43.0008°
RAAN247.9604°
Arg. of periapsis336.1903°
True anomaly23.89534°
Mean anomaly23.8852°
Eccentric anomaly23.89027°
Mean motion3.85046 °/min
BSTAR-0.00068264
Orbital period93.5 mins
Loading maneuver chart data...
Loading historical data...
Loading historical data...
Loading historical data...
Loading historical data...
Loading historical data...
Loading historical data...
Loading historical data...

STARLINK-31868 Visibility forecast

Observer location: undefined°, undefined

Span
Click to sort rows by Start time (UTC) header in descending order
Start Az.
Max El. time (UTC)
Max El. Az.
Max El.
End time (UTC)
End Az.
6 mins2025-02-13 17:01:24.984Z227.974° WSW2025-02-13 17:04:24.984Z162.279° S36.627°2025-02-13 17:07:24.984Z81.048° E
5 mins2025-02-13 18:40:24.984Z276.658° WNW2025-02-13 18:42:24.984Z334.34° NNW39.646°2025-02-13 18:45:24.984Z68.31° E
4 mins2025-02-13 20:19:24.984Z302.45° NW2025-02-13 20:21:24.984Z44.1° NE37.411°2025-02-13 20:23:24.984Z83.795° E
5 mins2025-02-13 21:57:24.984Z269.236° W2025-02-13 21:59:24.984Z178.245° S36.737°2025-02-13 22:02:24.984Z128.723° SE
|